| time (UTC) | temp F | wind direction | speed MPH | gust MPH | rain 1hr in | rain 24hr in | rain mn in | humidity % | barometer mb |
| 20260831172217 | 70 | 273 | 14.0 | 10.0 | 0.00 | 0.00 | 0.00 | ||
| 20260831171718 | 70 | 243 | 9.0 | 8.0 | 0.00 | 0.00 | 0.00 | ||
| 20260831171217 | 69 | 222 | 8.0 | 11.0 | 0.00 | 0.00 | 0.00 | ||
| 20260831170717 | 68 | 229 | 15.0 | 10.0 | 0.00 | 0.00 | 0.00 | ||
| 20260831170218 | 70 | 208 | 8.0 | 14.0 | 0.00 | 0.00 | 0.00 | ||
| 20260831165217 | 70 | 233 | 4.0 | 6.0 | 0.00 | 0.00 | 0.00 | ||
| 20260831164719 | 70 | 179 | 6.0 | 3.0 | 0.00 | 0.00 | 0.00 | ||
| 20260831164220 | 70 | 222 | 8.0 | 7.0 | 0.00 | 0.00 | 0.00 | ||
| 20260831163721 | 70 | 232 | 8.0 | 10.0 | 0.00 | 0.00 | 0.00 | ||
| 20260831163219 | 70 | 198 | 6.0 | 5.0 | 0.00 | 0.00 | 0.00 | ||
| 20260831162719 | 70 | 225 | 5.0 | 6.0 | 0.00 | 0.00 | 0.00 | ||
| 20260831162220 | 71 | 222 | 5.0 | 6.0 | 0.00 | 0.00 | 0.00 | ||
| 20260831161223 | 71 | 217 | 6.0 | 10.0 | 0.00 | 0.00 | 0.00 | ||
| 20260831160720 | 72 | 255 | 7.0 | 10.0 | 0.00 | 0.00 | 0.00 | ||
| 20260831160221 | 72 | 271 | 7.0 | 8.0 | 0.00 | 0.00 | 0.00 | ||
| 20260831155722 | 73 | 248 | 6.0 | 7.0 | 0.00 | 0.00 | 0.00 | ||
| 20260831155224 | 74 | 217 | 8.0 | 7.0 | 0.00 | 0.00 | 0.00 | ||
| 20260831154725 | 74 | 250 | 8.0 | 6.0 | 0.00 | 0.00 | 0.00 | ||
| 20260831154222 | 73 | 180 | 10.0 | 7.0 | 0.00 | 0.00 | 0.00 | ||
| 20260831153224 | 73 | 215 | 9.0 | 9.0 | 0.00 | 0.00 | 0.00 | ||
| 20260831152725 | 74 | 226 | 11.0 | 7.0 | 0.00 | 0.00 | 0.00 | ||
| 20260831152226 | 74 | 225 | 6.0 | 9.0 | 0.00 | 0.00 | 0.00 | ||
| 20260831151723 | 75 | 231 | 8.0 | 10.0 | 0.00 | 0.00 | 0.00 | ||
| 20260831151224 | 75 | 253 | 6.0 | 3.0 | 0.00 | 0.00 | 0.00 | ||
| 20260831150725 | 75 | 211 | 5.0 | 14.0 | 0.00 | 0.00 | 0.00 | ||
| 20260831150226 | 74 | 240 | 9.0 | 5.0 | 0.00 | 0.00 | 0.00 | ||
| 20260831145226 | 74 | 229 | 10.0 | 11.0 | 0.00 | 0.00 | 0.00 | ||
| 20260831144727 | 74 | 239 | 9.0 | 5.0 | 0.00 | 0.00 | 0.00 | ||
| 20260831144228 | 75 | 264 | 10.0 | 9.0 | 0.00 | 0.00 | 0.00 | ||
| 20260831143729 | 75 | 219 | 13.0 | 8.0 | 0.00 | 0.00 | 0.00 | ||
| 20260831143230 | 75 | 218 | 8.0 | 9.0 | 0.00 | 0.00 | 0.00 | ||
| 20260831142728 | 76 | 218 | 11.0 | 11.0 | 0.00 | 0.00 | 0.00 | ||
| 20260831141730 | 76 | 256 | 11.0 | 9.0 | 0.00 | 0.00 | 0.00 | ||
| 20260831141231 | 76 | 212 | 9.0 | 5.0 | 0.00 | 0.00 | 0.00 | ||
| 20260831140732 | 75 | 155 | 13.0 | 6.0 | 0.00 | 0.00 | 0.00 | ||
| 20260831134734 | 75 | 235 | 14.0 | 17.0 | 0.00 | 0.00 | 0.00 | ||
| 20260831134235 | 76 | 174 | 12.0 | 10.0 | 0.00 | 0.00 | 0.00 | ||
| 20260831133733 | 77 | 249 | 10.0 | 8.0 | 0.00 | 0.00 | 0.00 | ||
| 20260831133234 | 76 | 197 | 14.0 | 14.0 | 0.00 | 0.00 | 0.00 | ||
| 20260831132735 | 75 | 226 | 9.0 | 8.0 | 0.00 | 0.00 | 0.00 | ||
| 20260831132237 | 74 | 273 | 13.0 | 19.0 | 0.00 | 0.00 | 0.00 | ||
| 20260831131738 | 75 | 195 | 9.0 | 10.0 | 0.00 | 0.00 | 0.00 | ||
| 20260831131235 | 74 | 219 | 10.0 | 8.0 | 0.00 | 0.00 | 0.00 | ||
| 20260831130736 | 75 | 204 | 10.0 | 6.0 | 0.00 | 0.00 | 0.00 | ||
| 20260831125240 | 74 | 184 | 13.0 | 10.0 | 0.00 | 0.00 | 0.00 | ||
| 20260831124239 | 74 | 260 | 12.0 | 9.0 | 0.00 | 0.00 | 0.00 | ||
| 20260831123741 | 74 | 233 | 10.0 | 12.0 | 0.00 | 0.00 | 0.00 | ||
| 20260831122743 | 74 | 181 | 10.0 | 10.0 | 0.00 | 0.00 | 0.00 | ||
| 20260831121743 | 74 | 263 | 9.0 | 5.0 | 0.00 | 0.00 | 0.00 | ||
| 20260831121244 | 73 | 211 | 10.0 | 14.0 | 0.00 | 0.00 | 0.00 | ||
| 20260831120247 | 75 | 233 | 10.0 | 12.0 | 0.00 | 0.00 | 0.00 | ||
| 20260831115247 | 73 | 218 | 10.0 | 14.0 | 0.00 | 0.00 | 0.00 | ||
| 20260831114906 | 72 | 210 | 8.0 | 9.0 | 0.00 | 0.00 | 0.00 | ||
| 20260831114748 | 72 | 210 | 8.0 | 9.0 | 0.00 | 0.00 | 0.00 | ||
| 20260831114249 | 72 | 221 | 9.0 | 8.0 | 0.00 | 0.00 | 0.00 | ||
| 20260831113248 | 74 | 214 | 11.0 | 12.0 | 0.00 | 0.00 | 0.00 | ||
| 20260831112250 | 72 | 246 | 12.0 | 13.0 | 0.00 | 0.00 | 0.00 | ||
| 20260831111752 | 71 | 236 | 11.0 | 12.0 | 0.00 | 0.00 | 0.00 | ||
| 20260831111253 | 74 | 232 | 8.0 | 6.0 | 0.00 | 0.00 | 0.00 | ||
| 20260831110751 | 72 | 181 | 8.0 | 8.0 | 0.00 | 0.00 | 0.00 | ||
| 20260831110252 | 71 | 249 | 8.0 | 10.0 | 0.00 | 0.00 | 0.00 | ||
| 20260831105253 | 70 | 226 | 7.0 | 8.0 | 0.00 | 0.00 | 0.00 | ||
| 20260831104754 | 71 | 208 | 9.0 | 8.0 | 0.00 | 0.00 | 0.00 | ||
| 20260831103754 | 71 | 238 | 9.0 | 7.0 | 0.00 | 0.00 | 0.00 | ||
| 20260831103256 | 70 | 264 | 9.0 | 9.0 | 0.00 | 0.00 | 0.00 | ||
| 20260831102258 | 71 | 204 | 7.0 | 8.0 | 0.00 | 0.00 | 0.00 | ||
| 20260831101756 | 71 | 232 | 11.0 | 12.0 | 0.00 | 0.00 | 0.00 | ||
| 20260831101257 | 70 | 217 | 14.0 | 12.0 | 0.00 | 0.00 | 0.00 | ||
| 20260831100759 | 70 | 238 | 7.0 | 7.0 | 0.00 | 0.00 | 0.00 | ||
| 20260831095801 | 71 | 274 | 8.0 | 10.0 | 0.00 | 0.00 | 0.00 | ||
| 20260831095259 | 69 | 217 | 10.0 | 9.0 | 0.00 | 0.00 | 0.00 | ||
| 20260831094302 | 70 | 276 | 9.0 | 11.0 | 0.00 | 0.00 | 0.00 | ||
| 20260831093803 | 70 | 256 | 11.0 | 10.0 | 0.00 | 0.00 | 0.00 | ||
| 20260831093304 | 71 | 257 | 9.0 | 12.0 | 0.00 | 0.00 | 0.00 | ||
| 20260831092306 | 70 | 240 | 7.0 | 11.0 | 0.00 | 0.00 | 0.00 | ||
| 20260831091806 | 71 | 232 | 6.0 | 8.0 | 0.00 | 0.00 | 0.00 | ||
| 20260831090808 | 69 | 212 | 9.0 | 7.0 | 0.00 | 0.00 | 0.00 | ||
| 20260831090306 | 68 | 215 | 9.0 | 10.0 | 0.00 | 0.00 | 0.00 | ||
| 20260831085807 | 68 | 226 | 11.0 | 9.0 | 0.00 | 0.00 | 0.00 | ||
| 20260831085308 | 68 | 249 | 12.0 | 8.0 | 0.00 | 0.00 | 0.00 | ||
| 20260831084810 | 68 | 222 | 9.0 | 9.0 | 0.00 | 0.00 | 0.00 | ||
| 20260831083809 | 66 | 256 | 8.0 | 12.0 | 0.00 | 0.00 | 0.00 | ||
| 20260831082811 | 66 | 236 | 10.0 | 10.0 | 0.00 | 0.00 | 0.00 | ||
| 20260831082313 | 67 | 246 | 7.0 | 9.0 | 0.00 | 0.00 | 0.00 | ||
| 20260831081814 | 68 | 222 | 7.0 | 4.0 | 0.00 | 0.00 | 0.00 | ||
| 20260831081313 | 67 | 218 | 9.0 | 8.0 | 0.00 | 0.00 | 0.00 | ||
| 20260831080814 | 64 | 233 | 10.0 | 7.0 | 0.00 | 0.00 | 0.00 | ||
| 20260831080316 | 64 | 229 | 5.0 | 6.0 | 0.00 | 0.00 | 0.00 | ||
| 20260831075817 | 64 | 228 | 6.0 | 8.0 | 0.00 | 0.00 | 0.00 | ||
| 20260831074817 | 64 | 210 | 6.0 | 9.0 | 0.00 | 0.00 | 0.00 | ||
| 20260831074318 | 65 | 236 | 7.0 | 6.0 | 0.00 | 0.00 | 0.00 | ||
| 20260831072822 | 65 | 221 | 6.0 | 4.0 | 0.00 | 0.00 | 0.00 | ||
| 20260831071324 | 65 | 170 | 10.0 | 8.0 | 0.00 | 0.00 | 0.00 | ||
| 20260831070825 | 65 | 243 | 7.0 | 6.0 | 0.00 | 0.00 | 0.00 | ||
| 20260831070327 | 64 | 210 | 10.0 | 8.0 | 0.00 | 0.00 | 0.00 | ||
| 20260831065326 | 64 | 212 | 8.0 | 12.0 | 0.00 | 0.00 | 0.00 | ||
| 20260831064827 | 63 | 233 | 13.0 | 9.0 | 0.00 | 0.00 | 0.00 | ||
| 20260831064328 | 62 | 243 | 5.0 | 9.0 | 0.00 | 0.00 | 0.00 | ||
| 20260831063830 | 63 | 235 | 7.0 | 9.0 | 0.00 | 0.00 | 0.00 | ||
| 20260831063327 | 62 | 225 | 6.0 | 9.0 | 0.00 | 0.00 | 0.00 | ||
| 20260831062330 | 62 | 201 | 6.0 | 5.0 | 0.00 | 0.00 | 0.00 | ||
| 20260831061831 | 62 | 207 | 6.0 | 8.0 | 0.00 | 0.00 | 0.00 | ||
| 20260831060830 | 62 | 208 | 5.0 | 5.0 | 0.00 | 0.00 | 0.00 | ||
| 20260831060332 | 62 | 208 | 8.0 | 8.0 | 0.00 | 0.00 | 0.00 | ||
| 20260831054836 | 62 | 242 | 6.0 | 8.0 | 0.00 | 0.00 | 0.00 | ||
| 20260831054335 | 62 | 248 | 9.0 | 7.0 | 0.00 | 0.00 | 0.00 | ||
| 20260831052338 | 62 | 225 | 10.0 | 7.0 | 0.00 | 0.00 | 0.00 | ||
| 20260831051836 | 62 | 222 | 9.0 | 10.0 | 0.00 | 0.00 | 0.00 | ||
| 20260831051337 | 62 | 238 | 11.0 | 11.0 | 0.00 | 0.00 | 0.00 | ||
| 20260831050839 | 62 | 215 | 5.0 | 4.0 | 0.00 | 0.00 | 0.00 | ||
| 20260831050340 | 62 | 207 | 7.0 | 7.0 | 0.00 | 0.00 | 0.00 | ||
| 20260831045842 | 61 | 215 | 7.0 | 7.0 | 0.00 | 0.00 | 0.00 | ||
| 20260831044842 | 61 | 191 | 6.0 | 6.0 | 0.00 | 0.00 | 0.00 | ||
| 20260831044343 | 61 | 166 | 5.0 | 4.0 | 0.00 | 0.00 | 0.00 | ||
| 20260831043346 | 60 | 183 | 5.0 | 6.0 | 0.00 | 0.00 | 0.00 | ||
| 20260831042845 | 60 | 200 | 4.0 | 4.0 | 0.00 | 0.00 | 0.00 | ||
| 20260831041848 | 61 | 201 | 4.0 | 3.0 | 0.00 | 0.00 | 0.00 | ||
| 20260831041349 | 60 | 159 | 5.0 | 5.0 | 0.00 | 0.00 | 0.00 | ||
| 20260831035851 | 60 | 222 | 5.0 | 3.0 | 0.00 | 0.00 | 0.00 | ||
| 20260831034854 | 60 | 210 | 8.0 | 4.0 | 0.00 | 0.00 | 0.00 | ||
| 20260831034355 | 60 | 205 | 5.0 | 4.0 | 0.00 | 0.00 | 0.00 | ||
| 20260831033854 | 60 | 193 | 3.0 | 6.0 | 0.00 | 0.00 | 0.00 | ||
| 20260831032856 | 60 | 204 | 5.0 | 4.0 | 0.00 | 0.00 | 0.00 | ||
| 20260831031859 | 60 | 187 | 3.0 | 3.0 | 0.00 | 0.00 | 0.00 | ||
| 20260831030401 | 59 | 160 | 4.0 | 2.0 | 0.00 | 0.00 | 0.00 | ||
| 20260831025902 | 59 | 200 | 2.0 | 5.0 | 0.00 | 0.00 | 0.00 | ||
| 20260831024403 | 59 | 205 | 3.0 | 3.0 | 0.00 | 0.00 | 0.00 | ||
| 20260831023405 | 59 | 231 | 4.0 | 4.0 | 0.00 | 0.00 | 0.00 | ||
| 20260831021408 | 59 | 203 | 11.0 | 15.0 | 0.00 | 0.00 | 0.00 | ||
| 20260831020909 | 59 | 212 | 4.0 | 11.0 | 0.00 | 0.00 | 0.00 | ||
| 20260831020410 | 60 | 333 | 0.0 | 0.0 | 0.00 | 0.00 | 0.00 | ||
| 20260831015909 | 59 | 333 | 0.0 | 0.0 | 0.00 | 0.00 | 0.00 | ||
| 20260831014912 | 61 | 333 | 0.0 | 0.0 | 0.00 | 0.00 | 0.00 | ||
| 20260831014413 | 61 | 333 | 0.0 | 0.0 | 0.00 | 0.00 | 0.00 | ||
| 20260831013915 | 59 | 333 | 0.0 | 0.0 | 0.00 | 0.00 | 0.00 | ||
| 20260831013413 | 59 | 333 | 0.0 | 0.0 | 0.00 | 0.00 | 0.00 | ||
| 20260831012915 | 60 | 333 | 0.0 | 0.0 | 0.00 | 0.00 | 0.00 | ||
| 20260831012416 | 60 | 333 | 0.0 | 0.0 | 0.00 | 0.00 | 0.00 | ||
| 20260831011918 | 59 | 333 | 0.0 | 0.0 | 0.00 | 0.00 | 0.00 | ||
| 20260831011419 | 61 | 333 | 0.0 | 0.0 | 0.00 | 0.00 | 0.00 | ||
| 20260831010918 | 61 | 333 | 0.0 | 0.0 | 0.00 | 0.00 | 0.00 | ||
| 20260831010419 | 61 | 333 | 0.0 | 0.0 | 0.00 | 0.00 | 0.00 | ||
| 20260831005920 | 59 | 333 | 0.0 | 0.0 | 0.00 | 0.00 | 0.00 | ||
| 20260831005422 | 58 | 333 | 0.0 | 0.0 | 0.00 | 0.00 | 0.00 | ||
| 20260831004923 | 59 | 333 | 0.0 | 0.0 | 0.00 | 0.00 | 0.00 | ||
| 20260831004422 | 60 | 333 | 0.0 | 0.0 | 0.00 | 0.00 | 0.00 | ||
| 20260831002926 | 59 | 333 | 0.0 | 0.0 | 0.00 | 0.00 | 0.00 | ||
| 20260831002428 | 59 | 333 | 0.0 | 0.0 | 0.00 | 0.00 | 0.00 | ||
| 20260831001926 | 58 | 353 | 1.0 | 1.0 | 0.00 | 0.00 | 0.00 | ||
| 20260831001428 | 59 | 328 | 0.0 | 0.0 | 0.00 | 0.00 | 0.00 | ||
| 20260831000929 | 60 | 328 | 0.0 | 0.0 | 0.00 | 0.00 | 0.00 | ||
| 20260831000432 | 59 | 325 | 1.0 | 1.0 | 0.00 | 0.00 | 0.00 | ||
| 20260830235430 | 59 | 323 | 0.0 | 0.0 | 0.00 | 0.00 | 0.00 | ||
| 20260830234433 | 58 | 323 | 0.0 | 0.0 | 0.00 | 0.00 | 0.00 | ||
| 20260830233436 | 59 | 323 | 0.0 | 0.0 | 0.00 | 0.00 | 0.00 | ||
| 20260830232934 | 59 | 323 | 0.0 | 0.0 | 0.00 | 0.00 | 0.00 | ||
| 20260830232435 | 59 | 323 | 0.0 | 0.0 | 0.00 | 0.00 | 0.00 | ||
| 20260830231937 | 59 | 323 | 0.0 | 0.0 | 0.00 | 0.00 | 0.00 | ||
| 20260830231438 | 61 | 323 | 0.0 | 0.0 | 0.00 | 0.00 | 0.00 | ||
| 20260830230939 | 62 | 323 | 0.0 | 0.0 | 0.00 | 0.00 | 0.00 | ||
| 20260830230437 | 60 | 323 | 0.0 | 0.0 | 0.00 | 0.00 | 0.00 | ||
| 20260830225938 | 62 | 323 | 0.0 | 0.0 | 0.00 | 0.00 | 0.00 | ||
| 20260830225440 | 63 | 323 | 0.0 | 0.0 | 0.00 | 0.00 | 0.00 | ||
| 20260830224941 | 63 | 323 | 0.0 | 0.0 | 0.00 | 0.00 | 0.00 | ||
| 20260830224443 | 63 | 323 | 0.0 | 0.0 | 0.00 | 0.00 | 0.00 | ||
| 20260830223940 | 62 | 323 | 0.0 | 0.0 | 0.00 | 0.00 | 0.00 | ||
| 20260830223442 | 60 | 323 | 0.0 | 0.0 | 0.00 | 0.00 | 0.00 | ||
| 20260830222943 | 60 | 323 | 0.0 | 0.0 | 0.00 | 0.00 | 0.00 | ||
| 20260830222444 | 61 | 323 | 0.0 | 0.0 | 0.00 | 0.00 | 0.00 | ||
| 20260830221946 | 61 | 323 | 0.0 | 0.0 | 0.00 | 0.00 | 0.00 | ||
| 20260830221442 | 63 | 323 | 0.0 | 0.0 | 0.00 | 0.00 | 0.00 | ||
| 20260830220944 | 63 | 323 | 0.0 | 0.0 | 0.00 | 0.00 | 0.00 | ||
| 20260830220445 | 62 | 323 | 0.0 | 0.0 | 0.00 | 0.00 | 0.00 | ||
| 20260830215946 | 61 | 323 | 0.0 | 0.0 | 0.00 | 0.00 | 0.00 | ||
| 20260830215448 | 61 | 316 | 2.0 | 2.0 | 0.00 | 0.00 | 0.00 | ||
| 20260830214946 | 60 | 304 | 2.0 | 2.0 | 0.00 | 0.00 | 0.00 | ||
| 20260830214448 | 59 | 291 | 2.0 | 2.0 | 0.00 | 0.00 | 0.00 | ||
| 20260830213450 | 58 | 285 | 2.0 | 2.0 | 0.00 | 0.00 | 0.00 | ||
| 20260830212449 | 61 | 276 | 1.0 | 2.0 | 0.00 | 0.00 | 0.00 | ||
| 20260830211950 | 63 | 159 | 1.0 | 0.0 | 0.00 | 0.00 | 0.00 | ||
| 20260830211452 | 60 | 188 | 2.0 | 2.0 | 0.00 | 0.00 | 0.00 | ||
| 20260830210953 | 60 | 224 | 2.0 | 2.0 | 0.00 | 0.00 | 0.00 | ||
| 20260830210454 | 62 | 193 | 1.0 | 1.0 | 0.00 | 0.00 | 0.00 | ||
| 20260830205952 | 64 | 156 | 0.0 | 0.0 | 0.00 | 0.00 | 0.00 | ||
| 20260830205453 | 64 | 156 | 0.0 | 0.0 | 0.00 | 0.00 | 0.00 | ||
| 20260830203956 | 61 | 156 | 0.0 | 0.0 | 0.00 | 0.00 | 0.00 | ||
| 20260830203454 | 62 | 156 | 0.0 | 0.0 | 0.00 | 0.00 | 0.00 | ||
| 20260830202955 | 65 | 156 | 0.0 | 0.0 | 0.00 | 0.00 | 0.00 | ||
| 20260830202456 | 64 | 156 | 0.0 | 0.0 | 0.00 | 0.00 | 0.00 | ||
| 20260830201958 | 62 | 156 | 0.0 | 0.0 | 0.00 | 0.00 | 0.00 | ||
| 20260830201459 | 61 | 294 | 2.0 | 1.0 | 0.00 | 0.00 | 0.00 | ||
| 20260830200958 | 61 | 293 | 3.0 | 4.0 | 0.00 | 0.00 | 0.00 | ||
| 20260830200459 | 62 | 311 | 2.0 | 2.0 | 0.00 | 0.00 | 0.00 | ||
| 20260830200000 | 64 | 316 | 0.0 | 2.0 | 0.00 | 0.00 | 0.00 | ||
| 20260830195459 | 66 | 266 | 0.0 | 0.0 | 0.00 | 0.00 | 0.00 | ||
| 20260830195000 | 65 | 266 | 0.0 | 0.0 | 0.00 | 0.00 | 0.00 | ||
| 20260830194457 | 65 | 266 | 0.0 | 0.0 | 0.00 | 0.00 | 0.00 | ||
| 20260830193959 | 66 | 266 | 0.0 | 0.0 | 0.00 | 0.00 | 0.00 | ||
| 20260830193500 | 66 | 266 | 0.0 | 0.0 | 0.00 | 0.00 | 0.00 | ||
| 20260830193001 | 68 | 266 | 0.0 | 0.0 | 0.00 | 0.00 | 0.00 | ||
| 20260830192502 | 68 | 266 | 0.0 | 0.0 | 0.00 | 0.00 | 0.00 | ||
| 20260830191501 | 66 | 266 | 0.0 | 0.0 | 0.00 | 0.00 | 0.00 | ||
| 20260830191002 | 66 | 266 | 0.0 | 0.0 | 0.00 | 0.00 | 0.00 | ||
| 20260830190537 | 65 | 307 | 0.0 | 2.0 | 0.00 | 0.00 | 0.00 | ||
| 20260830190504 | 65 | 307 | 0.0 | 2.0 | 0.00 | 0.00 | 0.00 | ||
| 20260830190005 | 68 | 124 | 0.0 | 0.0 | 0.00 | 0.00 | 0.00 | ||
| 20260830185501 | 68 | 70 | 1.0 | 0.0 | 0.00 | 0.00 | 0.00 | ||
| 20260830185003 | 68 | 142 | 0.0 | 0.0 | 0.00 | 0.00 | 0.00 | ||
| 20260830184504 | 69 | 142 | 0.0 | 0.0 | 0.00 | 0.00 | 0.00 | ||
| 20260830184005 | 68 | 143 | 0.0 | 0.0 | 0.00 | 0.00 | 0.00 | ||
| 20260830183506 | 68 | 207 | 1.0 | 0.0 | 0.00 | 0.00 | 0.00 | ||
| 20260830183004 | 68 | 208 | 2.0 | 2.0 | 0.00 | 0.00 | 0.00 | ||
| 20260830182505 | 69 | 183 | 2.0 | 2.0 | 0.00 | 0.00 | 0.00 | ||
| 20260830182006 | 69 | 158 | 0.0 | 1.0 | 0.00 | 0.00 | 0.00 | ||
| 20260830181507 | 71 | 145 | 2.0 | 3.0 | 0.00 | 0.00 | 0.00 | ||
| 20260830181008 | 69 | 181 | 3.0 | 1.0 | 0.00 | 0.00 | 0.00 | ||
| 20260830180506 | 70 | 222 | 3.0 | 3.0 | 0.00 | 0.00 | 0.00 | ||
| 20260830180007 | 70 | 205 | 1.0 | 1.0 | 0.00 | 0.00 | 0.00 | ||
| 20260830175508 | 70 | 204 | 3.0 | 5.0 | 0.00 | 0.00 | 0.00 | ||
| 20260830175009 | 71 | 165 | 2.0 | 3.0 | 0.00 | 0.00 | 0.00 | ||
| 20260830174511 | 71 | 207 | 2.0 | 1.0 | 0.00 | 0.00 | 0.00 | ||
| 20260830173510 | 73 | 224 | 2.0 | 3.0 | 0.00 | 0.00 | 0.00 | ||
| 20260830173011 | 73 | 212 | 3.0 | 4.0 | 0.00 | 0.00 | 0.00 |